Ostrava, Czech Republic

1:33 PM CET on December 03, 2016 (GMT +0100)
Mosnov

Weather History for LKMT - April, 2013

Change the Weather History Date:

Wednesday, April 10, 2013

  Actual Average Record
Temperature  
Mean Temperature 42 °F -  
Max Temperature 51 °F 59 °F - ()
Min Temperature 32 °F 40 °F - ()
Degree Days  
Heating Degree Days 24    
Moisture  
Dew Point 38 °F    
Average Humidity 86    
Maximum Humidity 100    
Minimum Humidity 66    
Precipitation  
Precipitation 0.00 in 0.09 in - ()
Sea Level Pressure  
Sea Level Pressure 29.76 in    
Wind  
Wind Speed 5 mph ()    
Max Wind Speed 20 mph    
Max Gust Speed -    
Visibility 3.8 miles    
Events Fog , Rain    
T = Trace of Precipitation, MM = Missing Value Source: Averaged Metar Reports

Daily Weather History Graph

Daily Weather History Graph

Search for Another Location

Airport or City:

Trip Planner

Search our weather history database for the weather conditions in past years. The results will help you decide how hot, cold, wet, or windy it might be!

Date:

Astronomy

Apr. 10, 2013 Rise Set
Actual Time 6:05 AM CEST 7:33 PM CEST
Civil Twilight 5:32 AM CEST 8:06 PM CEST
Nautical Twilight 4:51 AM CEST 8:47 PM CEST
Astronomical Twilight 4:07 AM CEST 9:31 PM CEST
Moon 5:50 AM CEST (4/10) 7:55 PM CEST (4/10)
Length of Visible Light 14h 34m
Length of Day
13h 27m
New Moon, 0% of the Moon is Illuminated
Apr 10
New Moon
Apr 18
First Quarter
Apr 25
Full
May 2
Last Quarter
May 10
New

Hourly Weather History & Observations

Time (CEST) Temp. Windchill Dew Point Humidity Pressure Visibility Wind Dir Wind Speed Gust Speed Precip Events Conditions
12:00 AM 35.6 °F - 33.8 °F 93% 29.77 in 1.1 mi Variable 1.2 mph - N/A   Mist
12:30 AM 35.6 °F - 33.8 °F 93% 29.74 in 1.0 mi Calm Calm - N/A   Partly Cloudy
1:00 AM 33.8 °F - 33.8 °F 100% 29.74 in 0.9 mi Calm Calm - N/A   Partly Cloudy
1:30 AM 33.8 °F - 33.8 °F 100% 29.74 in 1.1 mi Calm Calm - N/A   Partly Cloudy
1:45 AM 33.8 °F - 32.0 °F 93% 29.71 in 0.6 mi Variable 2.3 mph - N/A   Scattered Clouds
2:00 AM 34 °F - 33 °F 93% 29.77 in 1 mi ENE 4.5 mph - - Fog Heavy Fog
2:00 AM 33.8 °F 30.8 °F 32.0 °F 93% 29.71 in 0.6 mi NE 3.5 mph - N/A Fog Fog
2:15 AM 33.8 °F 30.8 °F 32.0 °F 93% 29.71 in 0.1 mi ENE 3.5 mph - N/A Fog Fog
2:30 AM 33.8 °F - 32.0 °F 93% 29.71 in 0.1 mi Variable 1.2 mph - N/A Fog Fog
2:50 AM 33.8 °F - 32.0 °F 93% 29.71 in 0.4 mi Calm Calm - N/A Fog Fog
3:00 AM 33.8 °F - 33.8 °F 100% 29.71 in 0.4 mi South 1.2 mph - N/A Fog Fog
3:01 AM 33.8 °F - 33.8 °F 100% 29.71 in 0.5 mi South 2.3 mph - N/A Fog Fog
3:20 AM 33.8 °F 28.6 °F 32.0 °F 93% 29.71 in 0.5 mi WSW 5.8 mph - N/A Fog Fog
3:30 AM 33.8 °F 27.7 °F 32.0 °F 93% 29.71 in 0.7 mi WSW 6.9 mph - N/A   Overcast
4:00 AM 33.8 °F 30.8 °F 33.8 °F 100% 29.71 in 0.8 mi SW 3.5 mph - N/A Rain Rain
4:30 AM 35.6 °F - 33.8 °F 93% 29.71 in 0.7 mi East 2.3 mph - N/A Rain Light Rain
5:00 AM 33.8 °F - 33.8 °F 100% 29.71 in 0.7 mi Calm Calm - N/A Fog Shallow Fog
5:30 AM 33.8 °F - 33.8 °F 100% 29.71 in 0.7 mi Calm Calm - N/A   Overcast
5:45 AM 35.6 °F - 33.8 °F 93% 29.71 in 0.5 mi ESE 2.3 mph - N/A Fog Fog
6:00 AM 35.6 °F - 33.8 °F 93% 29.71 in 0.5 mi SE 2.3 mph - N/A Fog Fog
6:30 AM 35.6 °F - 33.8 °F 93% 29.71 in 0.6 mi SSW 2.3 mph - N/A Fog Fog
7:00 AM 35.6 °F - 33.8 °F 93% 29.74 in 0.6 mi Variable 1.2 mph - N/A Fog Fog
7:10 AM 35.6 °F 30.7 °F 35.6 °F 100% 29.74 in 1.0 mi SSW 5.8 mph - N/A   Overcast
7:30 AM 37.4 °F 31.4 °F 37.4 °F 100% 29.74 in 1.2 mi SW 8.1 mph - N/A   Overcast
8:00 AM 41 °F - 40 °F 92% 29.78 in 2 mi SSW 11.2 mph - - Fog Light Fog
8:00 AM 41.0 °F 34.3 °F 41.0 °F 100% 29.74 in 2.2 mi SSW 11.5 mph - N/A   Mostly Cloudy
8:30 AM 42.8 °F 36.2 °F 41.0 °F 93% 29.74 in 2.8 mi SW 12.7 mph - N/A   Mostly Cloudy
9:00 AM 42.8 °F 36.2 °F 41.0 °F 93% 29.74 in 3.7 mi SW 12.7 mph - N/A   Mostly Cloudy
9:30 AM 44.6 °F 38.1 °F 39.2 °F 81% 29.74 in 5.6 mi SW 13.8 mph - N/A   Partly Cloudy
10:00 AM 44.6 °F 37.8 °F 39.2 °F 81% 29.74 in 6.2 mi SW 15.0 mph - N/A   Partly Cloudy
10:30 AM 46.4 °F 40.4 °F 41.0 °F 81% 29.74 in 6.2 mi SSW 13.8 mph - N/A   Partly Cloudy
11:00 AM 48.2 °F - 41.0 °F 76% 29.74 in 6.2 mi SSW 12.7 mph - N/A   Partly Cloudy
11:30 AM 50.0 °F - 41.0 °F 71% 29.74 in 6.2 mi SW 13.8 mph - N/A   Mostly Cloudy
12:00 PM 48.2 °F - 39.2 °F 71% 29.77 in 6.2 mi SSW 16.1 mph - N/A   Mostly Cloudy
12:30 PM 48.2 °F - 41.0 °F 76% 29.77 in 6.2 mi SSW 15.0 mph - N/A   Overcast
1:00 PM 48.2 °F - 41.0 °F 76% 29.77 in 6.2 mi SSW 11.5 mph - N/A   Overcast
1:30 PM 48.2 °F - 41.0 °F 76% 29.77 in 6.2 mi SW 19.6 mph - N/A   Mostly Cloudy
2:00 PM 50 °F - 42 °F 66% 29.79 in 12 mi SW 17.9 mph - -   Mostly Cloudy
2:00 PM 50.0 °F - 42.8 °F 76% 29.77 in 6.2 mi SW 19.6 mph - N/A   Mostly Cloudy
2:30 PM 48.2 °F - 41.0 °F 76% 29.77 in 6.2 mi SSW 12.7 mph - N/A   Overcast
3:00 PM 48.2 °F - 41.0 °F 76% 29.77 in 6.2 mi SW 15.0 mph - N/A   Overcast
3:30 PM 48.2 °F - 42.8 °F 82% 29.77 in 6.2 mi SSW 8.1 mph - N/A   Mostly Cloudy
4:00 PM 48.2 °F - 41.0 °F 76% 29.77 in 6.2 mi SSW 11.5 mph - N/A   Mostly Cloudy
4:30 PM 50.0 °F - 42.8 °F 76% 29.77 in 6.2 mi SW 10.4 mph - N/A   Scattered Clouds
5:00 PM 50.0 °F - 41.0 °F 71% 29.77 in 6.2 mi SSW 6.9 mph - N/A   Scattered Clouds
5:30 PM 51.8 °F - 42.8 °F 71% 29.77 in 6.2 mi SSW 9.2 mph - N/A   Partly Cloudy
6:00 PM 51.8 °F - 42.8 °F 71% 29.80 in 6.2 mi SW 11.5 mph - N/A   Partly Cloudy
6:30 PM 50.0 °F - 41.0 °F 71% 29.80 in 6.2 mi South 5.8 mph - N/A   Scattered Clouds
7:00 PM 48.2 °F - 41.0 °F 76% 29.80 in 6.2 mi South 6.9 mph - N/A   Partly Cloudy
7:30 PM 48.2 °F - 41.0 °F 76% 29.80 in 6.2 mi SSW 9.2 mph - N/A   Partly Cloudy
8:00 PM 48.2 °F - 41.0 °F 76% 29.83 in 6.2 mi South 6.9 mph - N/A   Partly Cloudy
8:15 PM 47 °F - 40 °F 69% 29.85 in 12 mi South 6.7 mph - -   Partly Cloudy
8:30 PM 46.4 °F 41.9 °F 41.0 °F 81% 29.83 in 6.2 mi South 9.2 mph - N/A   Scattered Clouds
9:00 PM 44.6 °F 39.2 °F 39.2 °F 81% 29.83 in 6.2 mi SW 10.4 mph - N/A   Partly Cloudy
9:30 PM 44.6 °F 38.8 °F 39.2 °F 81% 29.86 in 6.2 mi SSW 11.5 mph - N/A   Scattered Clouds
10:00 PM 44.6 °F 38.1 °F 39.2 °F 81% 29.86 in 6.2 mi SW 13.8 mph - N/A   Partly Cloudy
10:30 PM 44.6 °F 38.8 °F 41.0 °F 87% 29.86 in 6.2 mi South 11.5 mph - N/A   Partly Cloudy
11:00 PM 44.6 °F 42.2 °F 39.2 °F 81% 29.86 in - South 4.6 mph - N/A   Clear
11:30 PM 42.8 °F - 39.2 °F 87% 29.86 in - Variable 2.3 mph - N/A   Clear